"datetime","temp","dp","rain_mm","uv","solar","mb","wind_mph","gust_mph","windchill","rh"
"2020-08-26 00:00:00",16.4,14.1,0.0,0.0,0,1001.0,2,4,"",86
"2020-08-26 00:01:00",16.4,14.1,0.0,0.0,0,1001.1,3,6,"",86
"2020-08-26 00:02:00",16.4,14.1,0.0,0.0,0,1000.9,5,11,"",86
"2020-08-26 00:03:00",16.4,14.1,0.0,0.0,0,1001.0,3,8,"",86
"2020-08-26 00:04:00",16.4,14.1,0.0,0.0,0,1001.0,2,6,"",86
"2020-08-26 00:05:00",16.4,14.1,0.0,0.0,0,1001.1,5,15,"",86
"2020-08-26 00:06:00",16.4,14.1,0.0,0.0,0,1001.1,2,4,"",86
"2020-08-26 00:07:00",16.3,14.0,0.0,0.0,0,1001.0,2,3,"",86
"2020-08-26 00:08:00",16.3,14.0,0.0,0.0,0,1001.0,3,5,"",86
"2020-08-26 00:09:00",16.3,14.0,0.0,0.0,0,1001.2,2,8,"",86
"2020-08-26 00:10:00",16.3,14.0,0.0,0.0,0,1001.2,2,3,"",86
"2020-08-26 00:11:00",16.3,14.0,0.0,0.0,0,1001.1,4,8,"",86
"2020-08-26 00:12:00",16.3,14.0,0.0,0.0,0,1001.3,2,5,"",86
"2020-08-26 00:13:00",16.3,14.0,0.0,0.0,0,1001.3,2,5,"",86
"2020-08-26 00:14:00",16.3,14.0,0.0,0.0,0,1001.3,3,8,"",86
"2020-08-26 00:15:00",16.3,14.0,0.0,0.0,0,1001.3,2,3,"",86
"2020-08-26 00:16:00",16.3,14.0,0.0,0.0,0,1001.2,3,6,"",86
"2020-08-26 00:17:00",16.3,14.1,0.0,0.0,0,1001.3,2,4,"",87
"2020-08-26 00:18:00",16.3,14.1,0.0,0.0,0,1001.3,2,4,"",87
"2020-08-26 00:19:00",16.3,14.1,0.0,0.0,0,1001.4,1,3,"",87
"2020-08-26 00:20:00",16.3,14.1,0.0,0.0,0,1001.5,2,5,"",87
"2020-08-26 00:21:00",16.3,14.1,0.0,0.0,0,1001.4,3,12,"",87
"2020-08-26 00:22:00",16.2,14.0,0.0,0.0,0,1001.3,4,10,"",87
"2020-08-26 00:23:00",16.3,14.1,0.0,0.0,0,1001.4,3,8,"",87
"2020-08-26 00:24:00",16.2,14.0,0.0,0.0,0,1001.5,3,5,"",87
"2020-08-26 00:25:00",16.2,14.0,0.0,0.0,0,1001.6,2,7,"",87
"2020-08-26 00:26:00",16.2,14.0,0.0,0.0,0,1001.6,3,8,"",87
"2020-08-26 00:27:00",16.2,14.0,0.0,0.0,0,1001.5,2,3,"",87
"2020-08-26 00:28:00",16.2,14.0,0.0,0.0,0,1001.6,1,3,"",87
"2020-08-26 00:29:00",16.2,14.0,0.0,0.0,0,1001.5,2,3,"",87
"2020-08-26 00:30:00",16.2,14.0,0.0,0.0,0,1001.6,2,4,"",87
"2020-08-26 00:31:00",16.2,14.0,0.0,0.0,0,1001.7,2,4,"",87
"2020-08-26 00:32:00",16.2,14.0,0.0,0.0,0,1001.6,2,5,"",87
"2020-08-26 00:33:00",16.2,13.9,0.0,0.0,0,1001.5,3,7,"",86
"2020-08-26 00:34:00",16.3,14.0,0.0,0.0,0,1001.7,2,4,"",86
"2020-08-26 00:35:00",16.3,14.0,0.0,0.0,0,1001.7,3,8,"",86
"2020-08-26 00:36:00",16.3,14.1,0.0,0.0,0,1001.8,5,17,"",87
"2020-08-26 00:37:00",16.3,14.1,0.0,0.0,0,1001.7,4,7,"",87
"2020-08-26 00:38:00",16.3,14.0,0.0,0.0,0,1001.7,3,5,"",86
"2020-08-26 00:39:00",16.3,14.0,0.0,0.0,0,1001.7,4,7,"",86
"2020-08-26 00:40:00",16.3,14.0,0.0,0.0,0,1001.7,3,4,"",86
"2020-08-26 00:41:00",16.3,14.0,0.0,0.0,0,1001.7,2,5,"",86
"2020-08-26 00:42:00",16.3,14.0,0.0,0.0,0,1001.8,2,5,"",86
"2020-08-26 00:43:00",16.3,14.0,0.0,0.0,0,1001.8,4,10,"",86
"2020-08-26 00:44:00",16.3,14.0,0.0,0.0,0,1001.8,2,4,"",86
"2020-08-26 00:45:00",16.3,14.0,0.0,0.0,0,1001.8,2,4,"",86
"2020-08-26 00:46:00",16.3,14.0,0.0,0.0,0,1001.8,2,3,"",86
"2020-08-26 00:47:00",16.2,13.9,0.0,0.0,0,1001.9,3,7,"",86
"2020-08-26 00:48:00",16.2,13.9,0.0,0.0,0,1001.8,2,4,"",86
"2020-08-26 00:49:00",16.2,13.9,0.0,0.0,0,1001.9,3,5,"",86
"2020-08-26 00:50:00",16.2,13.9,0.0,0.0,0,1001.8,3,9,"",86
"2020-08-26 00:51:00",16.2,13.9,0.0,0.0,0,1001.9,5,8,"",86
"2020-08-26 00:52:00",16.2,13.9,0.0,0.0,0,1001.7,3,6,"",86
"2020-08-26 00:53:00",16.2,13.9,0.0,0.0,0,1001.8,3,7,"",86
"2020-08-26 00:54:00",16.2,13.9,0.0,0.0,0,1001.8,3,6,"",86
"2020-08-26 00:55:00",16.2,13.9,0.0,0.0,0,1001.8,3,6,"",86
"2020-08-26 00:56:00",16.2,13.9,0.0,0.0,0,1001.8,3,10,"",86
"2020-08-26 00:57:00",16.2,13.9,0.0,0.0,0,1001.7,4,7,"",86
"2020-08-26 00:58:00",16.2,13.9,0.0,0.0,0,1001.9,2,6,"",86
"2020-08-26 00:59:00",16.2,13.9,0.0,0.0,0,1001.9,3,7,"",86
"2020-08-26 01:00:00",16.2,13.9,0.0,0.0,0,1002.0,3,6,"",86
"2020-08-26 01:01:00",16.3,14.0,0.0,0.0,0,1001.9,2,4,"",86
"2020-08-26 01:02:00",16.3,14.0,0.0,0.0,0,1002.0,3,6,"",86
"2020-08-26 01:03:00",16.3,14.0,0.0,0.0,0,1001.9,2,5,"",86
"2020-08-26 01:04:00",16.3,14.0,0.0,0.0,0,1002.0,4,7,"",86
"2020-08-26 01:05:00",16.3,14.0,0.0,0.0,0,1001.9,3,6,"",86
"2020-08-26 01:06:00",16.3,14.0,0.0,0.0,0,1002.0,2,4,"",86
"2020-08-26 01:07:00",16.3,14.0,0.0,0.0,0,1002.0,4,8,"",86
"2020-08-26 01:08:00",16.3,13.8,0.0,0.0,0,1002.0,3,6,"",85
"2020-08-26 01:09:00",16.3,13.8,0.0,0.0,0,1002.1,3,4,"",85
"2020-08-26 01:10:00",16.3,13.8,0.0,0.0,0,1002.0,2,3,"",85
"2020-08-26 01:11:00",16.3,13.8,0.0,0.0,0,1002.1,1,2,"",85
"2020-08-26 01:12:00",16.3,13.8,0.0,0.0,0,1002.1,3,7,"",85
"2020-08-26 01:13:00",16.3,13.8,0.0,0.0,0,1002.2,2,4,"",85
"2020-08-26 01:14:00",16.3,13.8,0.0,0.0,0,1002.1,2,3,"",85
"2020-08-26 01:15:00",16.3,13.8,0.0,0.0,0,1002.1,1,3,"",85
"2020-08-26 01:16:00",16.3,13.8,0.0,0.0,0,1002.2,2,4,"",85
"2020-08-26 01:17:00",16.3,13.8,0.0,0.0,0,1002.1,3,4,"",85
"2020-08-26 01:18:00",16.4,13.9,0.0,0.0,0,1002.2,2,8,"",85
"2020-08-26 01:19:00",16.4,13.9,0.0,0.0,0,1002.1,3,8,"",85
"2020-08-26 01:20:00",16.4,13.9,0.0,0.0,0,1002.2,1,3,"",85
"2020-08-26 01:21:00",16.4,13.9,0.0,0.0,0,1002.2,4,6,"",85
"2020-08-26 01:22:00",16.4,13.9,0.0,0.0,0,1002.2,4,7,"",85
"2020-08-26 01:23:00",16.4,13.9,0.0,0.0,0,1002.3,2,4,"",85
"2020-08-26 01:24:00",16.4,13.9,0.0,0.0,0,1002.3,2,4,"",85
"2020-08-26 01:25:00",16.4,13.9,0.0,0.0,0,1002.4,2,3,"",85
"2020-08-26 01:26:00",16.3,13.8,0.0,0.0,0,1002.3,3,10,"",85
"2020-08-26 01:27:00",16.3,13.8,0.0,0.0,0,1002.4,1,4,"",85
"2020-08-26 01:28:00",16.3,13.8,0.0,0.0,0,1002.5,2,4,"",85
"2020-08-26 01:29:00",16.4,13.9,0.0,0.0,0,1002.4,3,7,"",85
"2020-08-26 01:30:00",16.3,13.8,0.0,0.0,0,1002.4,3,8,"",85
"2020-08-26 01:31:00",16.3,13.8,0.0,0.0,0,1002.5,3,5,"",85
"2020-08-26 01:32:00",16.4,13.9,0.0,0.0,0,1002.4,2,4,"",85
"2020-08-26 01:33:00",16.4,13.9,0.0,0.0,0,1002.4,2,6,"",85
"2020-08-26 01:34:00",16.3,13.8,0.0,0.0,0,1002.4,2,5,"",85
"2020-08-26 01:35:00",16.4,14.1,0.0,0.0,0,1002.6,2,4,"",86
"2020-08-26 01:36:00",16.3,13.8,0.0,0.0,0,1002.5,2,3,"",85
"2020-08-26 01:37:00",16.4,13.9,0.0,0.0,0,1002.7,2,8,"",85
"2020-08-26 01:38:00",16.3,13.8,0.0,0.0,0,1002.6,4,8,"",85
"2020-08-26 01:39:00",16.4,13.9,0.0,0.0,0,1002.6,3,5,"",85
"2020-08-26 01:40:00",16.4,13.9,0.0,0.0,0,1002.6,3,5,"",85
"2020-08-26 01:41:00",16.4,13.9,0.0,0.0,0,1002.7,4,8,"",85
"2020-08-26 01:42:00",16.4,13.9,0.0,0.0,0,1002.7,2,3,"",85
"2020-08-26 01:43:00",16.4,13.9,0.0,0.0,0,1002.7,2,4,"",85
"2020-08-26 01:44:00",16.4,13.9,0.0,0.0,0,1002.7,3,10,"",85
"2020-08-26 01:45:00",16.4,13.9,0.0,0.0,0,1002.7,3,7,"",85
"2020-08-26 01:46:00",16.4,13.9,0.0,0.0,0,1002.8,3,8,"",85
"2020-08-26 01:47:00",16.4,13.9,0.0,0.0,0,1002.7,2,4,"",85
"2020-08-26 01:48:00",16.4,13.9,0.0,0.0,0,1002.8,2,3,"",85
"2020-08-26 01:49:00",16.4,13.9,0.0,0.0,0,1002.9,3,6,"",85
"2020-08-26 01:50:00",16.4,13.9,0.0,0.0,0,1002.8,1,2,"",85
"2020-08-26 01:51:00",16.3,13.8,0.0,0.0,0,1002.9,2,4,"",85
"2020-08-26 01:52:00",16.3,13.8,0.0,0.0,0,1002.8,2,3,"",85
"2020-08-26 01:53:00",16.3,13.8,0.0,0.0,0,1002.9,1,3,"",85
"2020-08-26 01:54:00",16.3,13.8,0.0,0.0,0,1002.9,4,11,"",85
"2020-08-26 01:55:00",16.3,13.8,0.0,0.0,0,1002.8,3,6,"",85
"2020-08-26 01:56:00",16.3,13.8,0.0,0.0,0,1002.9,3,8,"",85
"2020-08-26 01:57:00",16.3,13.8,0.0,0.0,0,1002.8,2,4,"",85
"2020-08-26 01:58:00",16.3,13.8,0.0,0.0,0,1002.9,2,5,"",85
"2020-08-26 01:59:00",16.3,13.8,0.0,0.0,0,1002.9,3,5,"",85
"2020-08-26 02:00:00",16.3,13.8,0.0,0.0,0,1003.1,2,5,"",85
"2020-08-26 02:01:00",16.3,13.8,0.0,0.0,0,1003.1,2,6,"",85
"2020-08-26 02:02:00",16.3,13.8,0.0,0.0,0,1003.0,2,3,"",85
"2020-08-26 02:03:00",16.3,13.8,0.0,0.0,0,1003.0,2,3,"",85
"2020-08-26 02:04:00",16.3,13.8,0.0,0.0,0,1003.1,3,5,"",85
"2020-08-26 02:05:00",16.3,13.8,0.0,0.0,0,1003.1,2,5,"",85
"2020-08-26 02:06:00",16.3,13.8,0.0,0.0,0,1003.1,3,4,"",85
"2020-08-26 02:07:00",16.3,13.8,0.0,0.0,0,1003.1,3,7,"",85
"2020-08-26 02:08:00",16.3,13.8,0.0,0.0,0,1003.1,5,7,"",85
"2020-08-26 02:09:00",16.3,13.8,0.0,0.0,0,1003.3,3,6,"",85
"2020-08-26 02:10:00",16.3,13.8,0.0,0.0,0,1003.3,4,9,"",85
"2020-08-26 02:11:00",16.3,13.8,0.0,0.0,0,1003.3,4,6,"",85
"2020-08-26 02:12:00",16.3,13.8,0.0,0.0,0,1003.4,3,5,"",85
"2020-08-26 02:13:00",16.3,13.6,0.0,0.0,0,1003.3,3,6,"",84
"2020-08-26 02:14:00",16.3,13.8,0.0,0.0,0,1003.2,4,6,"",85
"2020-08-26 02:15:00",16.3,13.8,0.0,0.0,0,1003.3,3,6,"",85
"2020-08-26 02:16:00",16.3,13.8,0.0,0.0,0,1003.2,2,4,"",85
"2020-08-26 02:17:00",16.3,13.8,0.0,0.0,0,1003.3,2,6,"",85
"2020-08-26 02:18:00",16.3,13.8,0.0,0.0,0,1003.4,2,3,"",85
"2020-08-26 02:19:00",16.3,13.8,0.0,0.0,0,1003.4,3,7,"",85
"2020-08-26 02:20:00",16.3,13.8,0.0,0.0,0,1003.3,2,3,"",85
"2020-08-26 02:21:00",16.3,13.8,0.0,0.0,0,1003.4,3,6,"",85
"2020-08-26 02:22:00",16.2,13.7,0.0,0.0,0,1003.4,4,7,"",85
"2020-08-26 02:23:00",16.2,13.7,0.0,0.0,0,1003.5,3,8,"",85
"2020-08-26 02:24:00",16.2,13.7,0.0,0.0,0,1003.5,2,5,"",85
"2020-08-26 02:25:00",16.2,13.7,0.0,0.0,0,1003.5,2,4,"",85
"2020-08-26 02:26:00",16.2,13.7,0.0,0.0,0,1003.4,2,4,"",85
"2020-08-26 02:27:00",16.2,13.7,0.0,0.0,0,1003.4,1,3,"",85
"2020-08-26 02:28:00",16.2,13.7,0.0,0.0,0,1003.4,3,4,"",85
"2020-08-26 02:29:00",16.2,13.7,0.0,0.0,0,1003.5,2,3,"",85
"2020-08-26 02:30:00",16.2,13.7,0.0,0.0,0,1003.5,2,5,"",85
"2020-08-26 02:31:00",16.2,13.9,0.0,0.0,0,1003.6,2,6,"",86
"2020-08-26 02:32:00",16.2,13.9,0.0,0.0,0,1003.6,1,3,"",86
"2020-08-26 02:33:00",16.2,13.9,0.0,0.0,0,1003.6,2,4,"",86
"2020-08-26 02:34:00",16.1,13.8,0.0,0.0,0,1003.6,3,7,"",86
"2020-08-26 02:35:00",16.1,13.8,0.0,0.0,0,1003.6,1,3,"",86
"2020-08-26 02:36:00",16.1,13.6,0.0,0.0,0,1003.6,1,3,"",85
"2020-08-26 02:37:00",16.1,13.6,0.0,0.0,0,1003.7,3,5,"",85
"2020-08-26 02:38:00",16.1,13.6,0.0,0.0,0,1003.7,2,4,"",85
"2020-08-26 02:39:00",16.1,13.8,0.0,0.0,0,1003.7,4,8,"",86
"2020-08-26 02:40:00",16.1,13.6,0.0,0.0,0,1003.5,2,5,"",85
"2020-08-26 02:41:00",16.1,13.8,0.0,0.0,0,1003.6,2,8,"",86
"2020-08-26 02:42:00",16.1,13.6,0.0,0.0,0,1003.7,3,4,"",85
"2020-08-26 02:43:00",16.0,13.5,0.0,0.0,0,1003.7,2,4,"",85
"2020-08-26 02:44:00",16.0,13.5,0.0,0.0,0,1003.7,2,4,"",85
"2020-08-26 02:45:00",16.0,13.5,0.0,0.0,0,1003.7,4,10,"",85
"2020-08-26 02:46:00",16.0,13.5,0.0,0.0,0,1003.8,2,4,"",85
"2020-08-26 02:47:00",16.0,13.5,0.0,0.0,0,1003.7,3,6,"",85
"2020-08-26 02:48:00",15.9,13.4,0.0,0.0,0,1003.7,2,5,"",85
"2020-08-26 02:49:00",15.9,13.4,0.0,0.0,0,1003.6,3,5,"",85
"2020-08-26 02:50:00",15.9,13.4,0.0,0.0,0,1003.7,4,8,"",85
"2020-08-26 02:51:00",15.9,13.6,0.0,0.0,0,1003.6,1,4,"",86
"2020-08-26 02:52:00",15.9,13.6,0.0,0.0,0,1003.6,5,8,"",86
"2020-08-26 02:53:00",15.9,13.6,0.0,0.0,0,1003.5,2,5,"",86
"2020-08-26 02:54:00",15.9,13.6,0.0,0.0,0,1003.6,3,5,"",86
"2020-08-26 02:55:00",15.9,13.6,0.0,0.0,0,1003.7,3,4,"",86
"2020-08-26 02:56:00",15.9,13.6,0.0,0.0,0,1003.6,2,4,"",86
"2020-08-26 02:57:00",15.9,13.6,0.0,0.0,0,1003.6,2,4,"",86
"2020-08-26 02:58:00",15.9,13.6,0.0,0.0,0,1003.6,1,2,"",86
"2020-08-26 02:59:00",15.8,13.5,0.0,0.0,0,1003.7,2,4,"",86
"2020-08-26 03:00:00",15.8,13.5,0.0,0.0,0,1003.7,4,6,"",86
"2020-08-26 03:01:00",15.8,13.5,0.0,0.0,0,1003.7,2,4,"",86
"2020-08-26 03:02:00",15.8,13.5,0.0,0.0,0,1003.7,3,5,"",86
"2020-08-26 03:03:00",15.8,13.5,0.0,0.0,0,1003.7,3,5,"",86
"2020-08-26 03:04:00",15.8,13.5,0.0,0.0,0,1003.8,2,4,"",86
"2020-08-26 03:05:00",15.8,13.5,0.0,0.0,0,1003.8,3,6,"",86
"2020-08-26 03:06:00",15.8,13.5,0.0,0.0,0,1003.9,3,6,"",86
"2020-08-26 03:07:00",15.8,13.5,0.0,0.0,0,1003.8,3,5,"",86
"2020-08-26 03:08:00",15.8,13.5,0.0,0.0,0,1003.8,2,3,"",86
"2020-08-26 03:09:00",15.8,13.5,0.0,0.0,0,1003.9,2,5,"",86
"2020-08-26 03:10:00",15.9,13.6,0.0,0.0,0,1003.9,2,3,"",86
"2020-08-26 03:11:00",15.9,13.6,0.0,0.0,0,1003.9,1,2,"",86
"2020-08-26 03:12:00",15.9,13.6,0.0,0.0,0,1003.9,1,2,"",86
"2020-08-26 03:13:00",15.9,13.6,0.0,0.0,0,1003.9,1,3,"",86
"2020-08-26 03:14:00",15.9,13.6,0.0,0.0,0,1004.1,3,7,"",86
"2020-08-26 03:15:00",15.9,13.6,0.0,0.0,0,1004.0,2,4,"",86
"2020-08-26 03:16:00",15.9,13.6,0.0,0.0,0,1004.1,1,2,"",86
"2020-08-26 03:17:00",15.9,13.7,0.0,0.0,0,1004.0,1,4,"",87
"2020-08-26 03:18:00",15.9,13.6,0.0,0.0,0,1004.1,3,9,"",86
"2020-08-26 03:19:00",15.9,13.6,0.0,0.0,0,1004.0,1,3,"",86
"2020-08-26 03:20:00",15.9,13.6,0.0,0.0,0,1004.1,2,5,"",86
"2020-08-26 03:21:00",15.9,13.6,0.0,0.0,0,1004.1,3,5,"",86
"2020-08-26 03:22:00",15.9,13.6,0.0,0.0,0,1004.0,2,3,"",86
"2020-08-26 03:23:00",15.9,13.7,0.0,0.0,0,1004.0,3,11,"",87
"2020-08-26 03:24:00",15.9,13.7,0.0,0.0,0,1004.0,1,3,"",87
"2020-08-26 03:25:00",15.9,13.7,0.0,0.0,0,1004.1,3,6,"",87
"2020-08-26 03:26:00",15.9,13.7,0.0,0.0,0,1004.1,2,5,"",87
"2020-08-26 03:27:00",15.9,13.7,0.0,0.0,0,1004.1,2,5,"",87
"2020-08-26 03:28:00",15.9,13.7,0.0,0.0,0,1004.2,1,4,"",87
"2020-08-26 03:29:00",15.9,13.7,0.0,0.0,0,1004.1,2,4,"",87
"2020-08-26 03:30:00",15.9,13.7,0.0,0.0,0,1004.2,2,5,"",87
"2020-08-26 03:31:00",15.9,13.7,0.0,0.0,0,1004.3,2,5,"",87
"2020-08-26 03:32:00",15.8,13.6,0.0,0.0,0,1004.2,2,5,"",87
"2020-08-26 03:33:00",15.9,13.7,0.0,0.0,0,1004.2,3,6,"",87
"2020-08-26 03:34:00",15.8,13.6,0.0,0.0,0,1004.2,2,5,"",87
"2020-08-26 03:35:00",15.8,13.6,0.0,0.0,0,1004.3,2,4,"",87
"2020-08-26 03:36:00",15.8,13.6,0.0,0.0,0,1004.3,2,4,"",87
"2020-08-26 03:37:00",15.8,13.6,0.0,0.0,0,1004.3,3,6,"",87
"2020-08-26 03:38:00",15.8,13.6,0.0,0.0,0,1004.4,1,2,"",87
"2020-08-26 03:39:00",15.8,13.6,0.0,0.0,0,1004.5,1,3,"",87
"2020-08-26 03:40:00",15.8,13.6,0.0,0.0,0,1004.4,3,4,"",87
"2020-08-26 03:41:00",15.8,13.6,0.0,0.0,0,1004.5,2,5,"",87
"2020-08-26 03:42:00",15.8,13.6,0.0,0.0,0,1004.5,3,5,"",87
"2020-08-26 03:43:00",15.8,13.6,0.0,0.0,0,1004.6,5,8,"",87
"2020-08-26 03:44:00",15.8,13.6,0.0,0.0,0,1004.6,2,4,"",87
"2020-08-26 03:45:00",15.9,13.7,0.0,0.0,0,1004.5,2,4,"",87
"2020-08-26 03:46:00",15.9,13.7,0.0,0.0,0,1004.6,3,8,"",87
"2020-08-26 03:47:00",15.9,13.7,0.0,0.0,0,1004.4,4,8,"",87
"2020-08-26 03:48:00",15.9,13.7,0.0,0.0,0,1004.5,1,4,"",87
"2020-08-26 03:49:00",15.9,13.7,0.0,0.0,0,1004.6,2,5,"",87
"2020-08-26 03:50:00",15.9,13.7,0.0,0.0,0,1004.6,1,2,"",87
"2020-08-26 03:51:00",15.9,13.7,0.0,0.0,0,1004.5,1,2,"",87
"2020-08-26 03:52:00",15.9,13.7,0.0,0.0,0,1004.6,2,7,"",87
"2020-08-26 03:53:00",15.9,13.7,0.0,0.0,0,1004.6,2,4,"",87
"2020-08-26 03:54:00",15.9,13.6,0.0,0.0,0,1004.6,2,5,"",86
"2020-08-26 03:55:00",15.9,13.7,0.0,0.0,0,1004.6,1,2,"",87
"2020-08-26 03:56:00",15.9,13.7,0.0,0.0,0,1004.5,2,4,"",87
"2020-08-26 03:57:00",15.9,13.7,0.0,0.0,0,1004.6,3,7,"",87
"2020-08-26 03:58:00",15.9,13.7,0.0,0.0,0,1004.5,1,4,"",87
"2020-08-26 03:59:00",15.9,13.7,0.0,0.0,0,1004.5,2,3,"",87
"2020-08-26 04:00:00",15.9,13.7,0.0,0.0,0,1004.6,2,3,"",87
"2020-08-26 04:01:00",15.9,13.7,0.0,0.0,0,1004.5,2,4,"",87
"2020-08-26 04:02:00",15.9,13.7,0.0,0.0,0,1004.5,2,3,"",87
"2020-08-26 04:03:00",15.9,13.7,0.0,0.0,0,1004.5,2,9,"",87
"2020-08-26 04:04:00",15.9,13.7,0.0,0.0,0,1004.3,3,4,"",87
"2020-08-26 04:05:00",15.9,13.7,0.0,0.0,0,1004.4,3,5,"",87
"2020-08-26 04:06:00",15.8,13.6,0.0,0.0,0,1004.5,3,6,"",87
"2020-08-26 04:07:00",15.8,13.6,0.0,0.0,0,1004.4,3,5,"",87
"2020-08-26 04:08:00",15.8,13.6,0.0,0.0,0,1004.5,2,4,"",87
"2020-08-26 04:09:00",15.8,13.6,0.0,0.0,0,1004.6,2,5,"",87
"2020-08-26 04:10:00",15.8,13.6,0.0,0.0,0,1004.6,3,5,"",87
"2020-08-26 04:11:00",15.8,13.6,0.0,0.0,0,1004.6,3,5,"",87
"2020-08-26 04:12:00",15.8,13.6,0.0,0.0,0,1004.7,2,4,"",87
"2020-08-26 04:13:00",15.8,13.6,0.0,0.0,0,1004.8,1,2,"",87
"2020-08-26 04:14:00",15.8,13.6,0.0,0.0,0,1004.7,2,3,"",87
"2020-08-26 04:15:00",15.8,13.8,0.0,0.0,0,1004.8,1,3,"",88
"2020-08-26 04:16:00",15.7,13.7,0.0,0.0,0,1004.8,2,5,"",88
"2020-08-26 04:17:00",15.7,13.7,0.0,0.0,0,1004.8,1,3,"",88
"2020-08-26 04:18:00",15.7,13.7,0.0,0.0,0,1004.9,1,2,"",88
"2020-08-26 04:19:00",15.7,13.7,0.0,0.0,0,1004.8,3,7,"",88
"2020-08-26 04:20:00",15.7,13.7,0.0,0.0,0,1004.8,2,3,"",88
"2020-08-26 04:21:00",15.7,13.7,0.0,0.0,0,1004.8,1,2,"",88
"2020-08-26 04:22:00",15.7,13.7,0.0,0.0,0,1004.8,2,4,"",88
"2020-08-26 04:23:00",15.7,13.7,0.0,0.0,0,1004.9,2,3,"",88
"2020-08-26 04:24:00",15.7,13.7,0.0,0.0,0,1004.9,2,4,"",88
"2020-08-26 04:25:00",15.7,13.7,0.0,0.0,0,1004.9,1,4,"",88
"2020-08-26 04:26:00",15.7,13.7,0.0,0.0,0,1004.9,1,2,"",88
"2020-08-26 04:27:00",15.7,13.7,0.0,0.0,0,1004.9,0,2,"",88
"2020-08-26 04:28:00",15.8,13.8,0.0,0.0,0,1004.9,2,6,"",88
"2020-08-26 04:29:00",15.8,13.8,0.0,0.0,0,1004.9,2,6,"",88
"2020-08-26 04:30:00",15.8,13.6,0.0,0.0,0,1004.8,1,4,"",87
"2020-08-26 04:31:00",15.8,13.6,0.0,0.0,0,1004.8,3,10,"",87
"2020-08-26 04:32:00",15.8,13.6,0.0,0.0,0,1004.8,3,9,"",87
"2020-08-26 04:33:00",15.8,13.6,0.0,0.0,0,1004.8,2,6,"",87
"2020-08-26 04:34:00",15.8,13.6,0.0,0.0,0,1005.0,1,3,"",87
"2020-08-26 04:35:00",15.8,13.6,0.0,0.0,0,1005.0,2,3,"",87
"2020-08-26 04:36:00",15.8,13.6,0.0,0.0,0,1004.9,2,3,"",87
"2020-08-26 04:37:00",15.8,13.6,0.0,0.0,0,1005.0,1,3,"",87
"2020-08-26 04:38:00",15.8,13.6,0.0,0.0,0,1005.0,3,5,"",87
"2020-08-26 04:39:00",15.9,13.7,0.0,0.0,0,1005.0,3,6,"",87
"2020-08-26 04:40:00",15.9,13.7,0.0,0.0,0,1005.0,1,3,"",87
"2020-08-26 04:41:00",15.9,13.7,0.0,0.0,0,1005.1,2,4,"",87
"2020-08-26 04:42:00",15.9,13.7,0.0,0.0,0,1005.1,3,5,"",87
"2020-08-26 04:43:00",15.9,13.7,0.0,0.0,0,1005.1,2,6,"",87
"2020-08-26 04:44:00",15.9,13.7,0.0,0.0,0,1005.1,2,5,"",87
"2020-08-26 04:45:00",15.9,13.7,0.0,0.0,0,1005.1,3,6,"",87
"2020-08-26 04:46:00",15.9,13.7,0.0,0.0,0,1005.2,2,7,"",87
"2020-08-26 04:47:00",15.8,13.6,0.0,0.0,0,1005.2,3,6,"",87
"2020-08-26 04:48:00",15.8,13.6,0.0,0.0,0,1005.3,3,5,"",87
"2020-08-26 04:49:00",15.8,13.5,0.0,0.0,0,1005.3,3,5,"",86
"2020-08-26 04:50:00",15.8,13.5,0.0,0.0,0,1005.3,2,4,"",86
"2020-08-26 04:51:00",15.8,13.5,0.0,0.0,0,1005.4,2,4,"",86
"2020-08-26 04:52:00",15.8,13.5,0.0,0.0,0,1005.4,1,2,"",86
"2020-08-26 04:53:00",15.8,13.5,0.0,0.0,0,1005.4,3,6,"",86
"2020-08-26 04:54:00",15.7,13.4,0.0,0.0,0,1005.4,2,5,"",86
"2020-08-26 04:55:00",15.7,13.4,0.0,0.0,0,1005.4,2,5,"",86
"2020-08-26 04:56:00",15.7,13.4,0.0,0.0,0,1005.5,4,6,"",86
"2020-08-26 04:57:00",15.7,13.4,0.0,0.0,0,1005.4,2,4,"",86
"2020-08-26 04:58:00",15.7,13.4,0.0,0.0,0,1005.6,2,3,"",86
"2020-08-26 04:59:00",15.6,13.1,0.0,0.0,0,1005.4,2,4,"",85
"2020-08-26 05:00:00",15.6,13.1,0.0,0.0,0,1005.6,1,3,"",85
"2020-08-26 05:01:00",15.6,13.1,0.0,0.0,0,1005.6,1,3,"",85
"2020-08-26 05:02:00",15.6,13.1,0.0,0.0,0,1005.6,3,6,"",85
"2020-08-26 05:03:00",15.5,13.0,0.0,0.0,0,1005.5,2,6,"",85
"2020-08-26 05:04:00",15.5,13.0,0.0,0.0,0,1005.6,2,3,"",85
"2020-08-26 05:05:00",15.5,13.0,0.0,0.0,0,1005.6,2,5,"",85
"2020-08-26 05:06:00",15.4,12.9,0.0,0.0,0,1005.6,1,3,"",85
"2020-08-26 05:07:00",15.4,12.9,0.0,0.0,0,1005.7,2,5,"",85
"2020-08-26 05:08:00",15.4,12.9,0.0,0.0,0,1005.7,2,3,"",85
"2020-08-26 05:09:00",15.4,12.9,0.0,0.0,0,1005.7,2,6,"",85
"2020-08-26 05:10:00",15.3,12.8,0.0,0.0,0,1005.7,2,3,"",85
"2020-08-26 05:11:00",15.3,12.8,0.0,0.0,0,1005.7,1,3,"",85
"2020-08-26 05:12:00",15.3,12.8,0.0,0.0,0,1005.8,2,3,"",85
"2020-08-26 05:13:00",15.3,12.8,0.0,0.0,0,1005.8,1,3,"",85
"2020-08-26 05:14:00",15.3,13.0,0.0,0.0,0,1005.8,2,3,"",86
"2020-08-26 05:15:00",15.2,12.9,0.0,0.0,0,1005.8,2,4,"",86
"2020-08-26 05:16:00",15.2,12.9,0.0,0.0,0,1005.9,2,4,"",86
"2020-08-26 05:17:00",15.2,12.9,0.0,0.0,0,1005.9,2,3,"",86
"2020-08-26 05:18:00",15.1,12.8,0.0,0.0,0,1005.9,2,4,"",86
"2020-08-26 05:19:00",15.1,12.8,0.0,0.0,0,1006.0,1,3,"",86
"2020-08-26 05:20:00",15.1,12.6,0.0,0.0,0,1006.0,2,5,"",85
"2020-08-26 05:21:00",15.1,12.6,0.0,0.0,0,1006.0,1,3,"",85
"2020-08-26 05:22:00",15.0,12.5,0.0,0.0,0,1006.0,2,2,"",85
"2020-08-26 05:23:00",15.1,12.6,0.0,0.0,0,1006.0,1,3,"",85
"2020-08-26 05:24:00",15.0,12.5,0.0,0.0,0,1006.2,1,3,"",85
"2020-08-26 05:25:00",15.0,12.5,0.0,0.0,0,1006.1,2,4,"",85
"2020-08-26 05:26:00",15.0,12.5,0.0,0.0,0,1006.1,2,3,"",85
"2020-08-26 05:27:00",15.0,12.5,0.0,0.0,0,1006.1,2,4,"",85
"2020-08-26 05:28:00",14.9,12.4,0.0,0.0,0,1006.2,1,4,"",85
"2020-08-26 05:29:00",14.9,12.4,0.0,0.0,0,1006.1,2,5,"",85
"2020-08-26 05:30:00",14.9,12.4,0.0,0.0,0,1006.2,2,5,"",85
"2020-08-26 05:31:00",14.9,12.6,0.0,0.0,0,1006.2,2,4,"",86
"2020-08-26 05:32:00",14.9,12.6,0.0,0.0,0,1006.2,3,5,"",86
"2020-08-26 05:33:00",14.9,12.4,0.0,0.0,0,1006.3,2,4,"",85
"2020-08-26 05:34:00",14.9,12.6,0.0,0.0,0,1006.4,1,4,"",86
"2020-08-26 05:35:00",14.9,12.6,0.0,0.0,0,1006.3,1,3,"",86
"2020-08-26 05:36:00",14.8,12.5,0.0,0.0,0,1006.3,2,3,"",86
"2020-08-26 05:37:00",14.8,12.3,0.0,0.0,0,1006.3,2,3,"",85
"2020-08-26 05:38:00",14.8,12.3,0.0,0.0,0,1006.4,2,4,"",85
"2020-08-26 05:39:00",14.7,12.4,0.0,0.0,0,1006.4,2,4,"",86
"2020-08-26 05:40:00",14.7,12.4,0.0,0.0,0,1006.4,1,2,"",86
"2020-08-26 05:41:00",14.7,12.2,0.0,0.0,0,1006.5,0,1,"",85
"2020-08-26 05:42:00",14.7,12.2,0.0,0.0,0,1006.4,1,2,"",85
"2020-08-26 05:43:00",14.7,12.4,0.0,0.0,0,1006.4,2,5,"",86
"2020-08-26 05:44:00",14.6,12.3,0.0,0.0,0,1006.5,2,5,"",86
"2020-08-26 05:45:00",14.6,12.3,0.0,0.0,0,1006.5,3,5,"",86
"2020-08-26 05:46:00",14.6,12.3,0.0,0.0,0,1006.6,3,6,"",86
"2020-08-26 05:47:00",14.6,12.3,0.0,0.0,0,1006.5,2,6,"",86
"2020-08-26 05:48:00",14.6,12.3,0.0,0.0,0,1006.6,3,7,"",86
"2020-08-26 05:49:00",14.6,12.3,0.0,0.0,0,1006.6,2,6,"",86
"2020-08-26 05:50:00",14.6,12.1,0.0,0.0,0,1006.5,2,6,"",85
"2020-08-26 05:51:00",14.6,12.3,0.0,0.0,0,1006.6,1,4,"",86
"2020-08-26 05:52:00",14.6,12.1,0.0,0.0,0,1006.5,2,3,"",85
"2020-08-26 05:53:00",14.6,12.1,0.0,0.0,0,1006.6,2,4,"",85
"2020-08-26 05:54:00",14.6,12.1,0.0,0.0,0,1006.5,2,4,"",85
"2020-08-26 05:55:00",14.7,12.2,0.0,0.0,0,1006.7,2,4,"",85
"2020-08-26 05:56:00",14.6,12.3,0.0,0.0,0,1006.7,2,4,"",86
"2020-08-26 05:57:00",14.6,12.1,0.0,0.0,0,1006.7,1,2,"",85
"2020-08-26 05:58:00",14.6,12.1,0.0,0.0,0,1006.8,2,4,"",85
"2020-08-26 05:59:00",14.6,12.1,0.0,0.0,0,1006.7,2,4,"",85
"2020-08-26 06:00:00",14.6,12.1,0.0,0.0,0,1006.8,2,4,"",85
"2020-08-26 06:01:00",14.6,12.3,0.0,0.0,0,1006.8,3,5,"",86
"2020-08-26 06:02:00",14.6,12.3,0.0,0.0,0,1006.9,2,4,"",86
"2020-08-26 06:03:00",14.5,12.2,0.0,0.0,0,1007.0,2,4,"",86
"2020-08-26 06:04:00",14.5,12.0,0.0,0.0,0,1006.9,1,2,"",85
"2020-08-26 06:05:00",14.4,11.9,0.0,0.0,0,1007.0,1,3,"",85
"2020-08-26 06:06:00",14.4,11.9,0.0,0.0,0,1006.9,1,3,"",85
"2020-08-26 06:07:00",14.4,11.9,0.0,0.0,0,1007.0,1,4,"",85
"2020-08-26 06:08:00",14.4,11.9,0.0,0.0,0,1007.0,1,2,"",85
"2020-08-26 06:09:00",14.4,11.9,0.0,0.0,0,1007.0,1,3,"",85
"2020-08-26 06:10:00",14.4,11.9,0.0,0.0,0,1007.0,2,4,"",85
"2020-08-26 06:11:00",14.4,11.9,0.0,0.0,0,1007.1,2,5,"",85
"2020-08-26 06:12:00",14.4,11.9,0.0,0.0,0,1007.0,2,4,"",85
"2020-08-26 06:13:00",14.4,11.9,0.0,0.0,0,1007.1,1,3,"",85
"2020-08-26 06:14:00",14.4,11.9,0.0,0.0,0,1007.2,2,4,"",85
"2020-08-26 06:15:00",14.4,11.9,0.0,0.0,0,1007.2,2,4,"",85
"2020-08-26 06:16:00",14.3,11.8,0.0,0.0,0,1007.2,2,4,"",85
"2020-08-26 06:17:00",14.3,11.8,0.0,0.0,0,1007.2,1,2,"",85
"2020-08-26 06:18:00",14.3,11.8,0.0,0.0,0,1007.3,2,4,"",85
"2020-08-26 06:19:00",14.3,11.8,0.0,0.0,0,1007.3,2,4,"",85
"2020-08-26 06:20:00",14.3,11.8,0.0,0.0,0,1007.3,1,3,"",85
"2020-08-26 06:21:00",14.3,11.8,0.0,0.0,5,1007.4,1,4,"",85
"2020-08-26 06:22:00",14.3,11.8,0.0,0.0,5,1007.4,2,4,"",85
"2020-08-26 06:23:00",14.3,11.8,0.0,0.0,5,1007.4,1,2,"",85
"2020-08-26 06:24:00",14.3,11.8,0.0,0.0,5,1007.4,2,6,"",85
"2020-08-26 06:25:00",14.3,11.8,0.0,0.0,5,1007.5,3,7,"",85
"2020-08-26 06:26:00",14.3,12.0,0.0,0.0,7,1007.5,1,3,"",86
"2020-08-26 06:27:00",14.3,12.0,0.0,0.0,7,1007.6,2,6,"",86
"2020-08-26 06:28:00",14.3,12.0,0.0,0.0,7,1007.6,3,4,"",86
"2020-08-26 06:29:00",14.3,12.0,0.0,0.0,7,1007.6,1,2,"",86
"2020-08-26 06:30:00",14.3,12.0,0.0,0.0,7,1007.6,1,3,"",86
"2020-08-26 06:31:00",14.3,12.0,0.0,0.0,9,1007.6,1,2,"",86
"2020-08-26 06:32:00",14.2,11.9,0.0,0.0,11,1007.7,2,7,"",86
"2020-08-26 06:33:00",14.2,11.9,0.0,0.0,11,1007.6,1,4,"",86
"2020-08-26 06:34:00",14.2,11.9,0.0,0.0,11,1007.7,1,2,"",86
"2020-08-26 06:35:00",14.2,11.9,0.0,0.0,11,1007.6,1,3,"",86
"2020-08-26 06:36:00",14.2,11.9,0.0,0.0,11,1007.6,1,2,"",86
"2020-08-26 06:37:00",14.2,11.9,0.0,0.0,12,1007.7,3,8,"",86
"2020-08-26 06:38:00",14.2,11.9,0.0,0.0,12,1007.7,2,4,"",86
"2020-08-26 06:39:00",14.2,12.1,0.0,0.0,14,1007.8,1,3,"",87
"2020-08-26 06:40:00",14.2,12.1,0.0,0.0,14,1007.8,3,7,"",87
"2020-08-26 06:41:00",14.2,12.1,0.0,0.0,14,1007.9,4,9,"",87
"2020-08-26 06:42:00",14.2,12.1,0.0,0.0,16,1007.9,3,7,"",87
"2020-08-26 06:43:00",14.2,12.1,0.0,0.0,16,1007.9,3,5,"",87